Location: ????????
(38.4362°N, 22.8767°E)
Time: 11:24:24
(UTC+00:00)

USA 276 - Pass Details

Date: 23 April 2024
Orbit: 366 x 369 km, 50.0° (Epoch: 12 July)

Event Time Altitude Azimuth Distance (km) Brightness Sun altitude
Exits shadow 02:51:25 16° 240° (WSW) 941 3.4 -9.9°
Maximum altitude 02:53:27 74° 324° (NW) 347 1.8 -9.6°
Drops below altitude 10° 02:56:19 10° 51° (NE) 1,291 6.2 -9.1°
Sets 02:58:24 0° 53° (NE) 2,155 7.8 -8.7°
